Webcams

EDPO Webcam Blick Richtung Osten (local time)

Webcam

Info zum Bild:

  • Blick zum Kloster Mariahilf, Entfernung ca. 3km
  • Blick zur Kirche St. Johannes, Entfernung ca. 1km
  • Blick zu den beiden Windrädern, Entfernung ca. 6km

EDPO Webcam Blick Richtung Westen (local time)

Webcam

Info zum Bild:

  • Blick zum Tyrolsberg, Entfernung ca. 3,5km

Dillberg Webcam Blick Richtung Westen zum Sender (local time)

Webcam

Info zum Bild:

  • Blick zum Dillberg Sender, Entfernung ca. 0,6 km
  • Höhe 2.716 ft über MSL Hindernis Höhe Sender (laut ICAO Karte)
  • Höhe 1.322 ft über EDPO Höhe Sender
  • Nord Platzrundenhöhe EDPO 2.200 ft

Dillberg Webcam Blick Richtung Osten zu EDPO (local time)

Webcam

Info zum Bild:

  • Blick vom Dillberg Richtung Neumarkt, Höhe 555ft über EDPO

Sparkasse Webcam Blick Richtung Nord-West über Neumarkt


Snapshot

Info zum Bild:

Nürnberger Fernsehturm (Rundum CAM)


METAR Informationen der nächstgelegenen Flughäfen


EDDN / Flughafen Nürnberg „Albrecht Dürer“

EDDN 270750Z 13008KT 9999 FEW008 BKN026 01/00 Q0990 NOSIG

ETIC / Fliegerhorst Grafenwöhr AAF

ETIC 270757Z AUTO 16003KT 9999 -RA SCT025 OVC030 01/M01 A2923 RMK AO2 FZRAE56RAB56 SLP918 $

ETIH / Fliegerhorst Hohenfels AAF

ETIH 270756Z AUTO 11003KT 9999 FEW011 SCT028 SCT033 M00/M02 A2926 RMK AO2 UPB20E44UPB44E44 SLP931 P0000 T10041025 $